Location: Makanda
(37.6176°N, 89.2090°W)
Time: 04:35:46
(UTC+00:00)

CZ-3 R/B - Pass Details

Date: 23 September 2019
Orbit: 335 x 10285 km, 28.4° (Epoch: 20 October)

Event Time Altitude Azimuth Distance (km) Brightness Sun altitude
Rises 11:01:08 0° 284° (WNW) 12,952 6.7 -9.6°
Reaches altitude 10° 11:16:48 10° 278° (W) 9,779 6.0 -6.5°
Maximum altitude 11:39:46 29° 230° (SW) 3,967 4.3 -1.9°
Drops below altitude 10° 11:47:52 10° 173° (S) 3,431 4.5 -0.3°
Sets 11:50:13 0° 160° (SSE) 3,839 4.9 0.1°
